Location: Chariton
(41.0140°N, 93.3060°W)
Time: 02:45:18
(UTC-05:00)

Hubble Space Telescope - Visible Passes

Search period start: 23 July 2018 00:00
Search period end: 02 August 2018 00:00
Orbit: 537 x 541 km, 28.5° (Epoch: 22 July)

Date Brightness Start Highest point End Pass type
(mag) Time Alt. Az. Time Alt. Az. Time Alt. Az.
30 Jul 2.9 21:13:53 10° S 21:14:39 10° SSE 21:15:25 10° SSE visible
31 Jul 2.9 21:02:39 10° S 21:04:08 12° S 21:05:37 10° SSE visible
01 Aug 3.2 22:31:56 10° SW 22:32:12 11° SSW 22:32:12 11° SSW visible
